Location: Hilton Head Island
(32.2163°N, 80.7526°W)
Time: 22:14:02
(UTC-05:00)

Explorer 7 - Pass Details

Date: 21 February 2026
Orbit: 430 x 542 km, 50.2° (Epoch: 5 March)

Event Time Altitude Azimuth Distance (km) Brightness Sun altitude
Rises 19:49:14 0° 321° (NW) 2,539 10.8 -20.8°
Reaches altitude 10° 19:51:32 10° 332° (NNW) 1,679 9.6 -21.3°
Enters shadow 19:53:53 27° 4° (N) 992 8.1 -21.7°
Maximum altitude 19:54:59 32° 36° (NE) 885 - -22.0°
Drops below altitude 10° 19:58:32 10° 101° (E) 1,735 - -22.7°
Sets 20:00:57 0° 111° (ESE) 2,638 - -23.2°
